Location: Barrio Las Umbrías
(40.4173°N, 4.8685°W)
Time: 12:26:14
(UTC+00:00)

USA 229 - Pass Details

Date: 17 August 2022
Orbit: 929 x 1283 km, 63.4° (Epoch: 21 September)

Event Time Altitude Azimuth Distance (km) Brightness Sun altitude
Rises 20:29:31 0° 204° (SSW) 3,576 6.4 -13.8°
Reaches altitude 10° 20:31:59 10° 201° (SSW) 2,654 5.7 -14.2°
Maximum altitude 20:38:06 68° 120° (ESE) 1,051 3.4 -15.2°
Drops below altitude 10° 20:44:42 10° 39° (NE) 2,850 5.9 -16.3°
Sets 20:47:27 0° 37° (NE) 3,860 6.6 -16.7°
